Starlink 34087

operational
NORAD ID: 64024 Int'l Des: 2025-102 Owner: SPXS Country: US Constellation: starlink
LEOCIRCULAR

关于 Starlink 34087

正在加载描述...

实时位置

正在加载3D地球...

即将过境

高度历史

Altitude vs Time

uPlot chart will show altitude changes over time

两行轨道根数

1 64024U 25102C 26095.58692958 .00005789 00000-0 49248-3 0 9999
2 64024 70.0028 46.5353 0002870 265.7853 94.2978 14.98334846 49871
Epoch: Apr 5, 2026 • Age: 9 hours

当前状态

高度 575.3 km
速度 7.58 km/s
星下点 24.80°N, 40.04°E
发射日期 May 16, 2025
运行时间 0.8 years
类型 internet

技术详情

分类 Payload
质量 575.00 kg
干质量 530.00 kg
总质量 575.00 kg
长度 0.30 m
直径 4.10 m
跨度 29.00 m
形状 Box + pan
制造商 SPXS
平台类型 Starlink V2MO
阶段状态 In Orbit
所有者/国家 SPXS/US

大型星座

Loading constellations...